Weather in Stepnoe

Russia / Stavropol Krai     44°16′20″N   44°34′45″E
temp.,
°C
wind,
m/s
gust,
m/s
humid.,
%
clouds,
%
prec.,
mm/h
press.,
hPa
HPBL,
m
24 may, tue
tue2400:00+12w4795100 3.3 1007247
03:00+12w51091100 3.9 1007371
06:00+12nw3591100 0.2 1008231
09:00+15nnw3368100 0.3 1009943
12:00+17n3360100 0.4 10101245
15:00+18nnw2253100 0.8 10101456
18:00+14w4584100 1.6 1012232
21:00+12w4693100 2.2 1014164
25 may, wed
wed2500:00+12wsw3690100 0.1 1015174
03:00+11wnw599295 0.1 1016254
06:00+11wnw488858 0.0 1017275
09:00+16wnw456749 0.1 10181055
12:00+18w445490 0.4 10181742
15:00+19nw455346 1.6 10181682
18:00+17wnw356317 0.3 1020233
21:00+13nw33725 0.3 102126
26 may, thu
thu2600:00+11w33765 0.0 102130
03:00+10w33815 0.0 102134
06:00+12w2474100 0.0 1022106
09:00+17wsw225576 0.0 1022510
12:00+20wsw344318 0.0 10211990
15:00+21w334171 0.0 10202156
18:00+20nnw22556 0.0 101997
21:00+14se006041 0.0 102011
27 may, fri
fri2700:00+14s1260100 0.0 101912
03:00+15sw226279 0.0 101923
06:00+15ssw247061 0.0 101999
09:00+20sw23557 0.0 1019725
12:00+23sw234659 0.0 10181641
15:00+24wnw344320 0.0 10171994
18:00+22nw35545 0.0 1018219
21:00+18nnw225784 0.0 101912
28 may, sat
sat2800:00+17n3660100 0.0 1018136
03:00+16nne116319 0.0 101816
06:00+17ne12655 0.0 101875
09:00+22ene23535 0.0 1016714
12:00+26ese45415 0.0 10141829
15:00+27ese45355 0.0 10132048
18:00+24ese59490 0.0 1014321
21:00+17e48580 0.0 1015129